Location: Betzi
(47.2343°N, 9.5260°E)
Time: 17:49:51
(UTC+00:00)

Lacrosse 5 - Visible Passes

Search period start: 06 October 2022 00:00
Search period end: 16 October 2022 00:00
Orbit: 714 x 724 km, 57.0° (Epoch: 09 March)

Date Brightness Start Highest point End Pass type
(mag) Time Alt. Az. Time Alt. Az. Time Alt. Az.
10 Oct 4.6 04:43:45 10° SSE 04:46:54 17° ESE 04:50:02 10° E visible
12 Oct 3.9 04:38:52 10° S 04:43:10 29° SE 04:47:29 10° ENE visible
13 Oct 4.5 03:47:15 10° SSE 03:50:22 17° ESE 03:53:29 10° E visible
14 Oct 2.8 04:34:43 10° SSW 04:39:34 48° SE 04:44:26 10° ENE visible
15 Oct 3.6 03:42:21 10° S 03:46:38 28° SE 03:50:56 10° ENE visible
